The Dalles, WA

7:34 PM PDT on September 22, 2019 (GMT -0700)
Columbia Gorge Regional-The Dalles

Weather History for KDLS - August, 2019

Change the Weather History Date:

Sunday, August 18, 2019

  Actual Average Record
Temperature  
Mean Temperature 70 °F -  
Max Temperature 87 °F 88 °F 109 °F (1977)
Min Temperature 55 °F 59 °F 47 °F (1972)
Cooling Degree Days 6    
Growing Degree Days 20 (Base 50)    
Moisture  
Dew Point 51 °F    
Average Humidity 51    
Maximum Humidity 75    
Minimum Humidity 27    
Precipitation  
Precipitation 0.00 in - - ()
Sea Level Pressure  
Sea Level Pressure 29.77 in    
Wind  
Wind Speed 11 mph (WNW)    
Max Wind Speed 23 mph    
Max Gust Speed 32 mph    
Averages and records for this station are not official NWS values.
T = Trace of Precipitation, MM = Missing Value Source: NWS Daily Summary

Daily Weather History Graph

Daily Weather History Graph

Search for Another Location

Airport or City:

Astronomy

Aug. 18, 2019 Rise Set
Actual Time 6:08 AM PDT 8:07 PM PDT
Civil Twilight 5:36 AM PDT 8:39 PM PDT
Nautical Twilight 4:57 AM PDT 9:18 PM PDT
Astronomical Twilight 4:13 AM PDT 10:01 PM PDT
Moon 9:56 PM PDT (8/18) 9:05 AM PDT (8/18)
Length of Visible Light 15h 03m
Length of Day
13h 59m
Waning Gibbous, 91% of the Moon is Illuminated
Aug 18
Waning Gibbous
Aug 23
Last Quarter
Aug 30
New
Sep 5
First Quarter
Sep 13
Full

Hourly Weather History & Observations

Time (PDT) Temp. Heat Index Dew Point Humidity Pressure Visibility Wind Dir Wind Speed Gust Speed Precip Events Conditions
12:53 AM 64.9 °F - 53.1 °F 65% 29.83 in - NW 10.4 mph - N/A   Clear
1:53 AM 64.9 °F - 53.1 °F 65% 29.81 in - NW 12.7 mph - N/A   Clear
2:53 AM 64.9 °F - 53.1 °F 65% 29.81 in - WNW 12.7 mph - N/A   Clear
3:53 AM 57.9 °F - 48.0 °F 70% 29.81 in - SW 8.1 mph - N/A   Clear
4:53 AM 61.0 °F - 51.1 °F 70% 29.80 in - WSW 9.2 mph - N/A   Clear
5:53 AM 55.9 °F - 48.0 °F 75% 29.80 in - SSW 4.6 mph - N/A   Clear
6:53 AM 57.9 °F - 48.9 °F 72% 29.81 in - SW 3.5 mph - N/A   Clear
7:53 AM 63.0 °F - 50.0 °F 63% 29.82 in - SE 5.8 mph - N/A   Clear
8:53 AM 66.9 °F - 54.0 °F 63% 29.82 in - WNW 4.6 mph - N/A   Clear
9:53 AM 71.1 °F - 53.1 °F 53% 29.81 in - NNW 6.9 mph - N/A   Clear
10:53 AM 73.9 °F - 53.1 °F 48% 29.81 in - NNW 11.5 mph - N/A   Clear
11:53 AM 78.1 °F - 53.1 °F 42% 29.78 in - NNW 12.7 mph - N/A   Clear
12:53 PM 81.0 °F 80.4 °F 53.1 °F 38% 29.76 in - NW 12.7 mph - N/A   Clear
1:53 PM 84.0 °F - 52.0 °F 33% 29.74 in - NW 12.7 mph - N/A   Clear
2:53 PM 84.9 °F - 46.9 °F 27% 29.72 in - NNW 23.0 mph 32.2 mph N/A   Clear
3:53 PM 86.0 °F - 48.0 °F 27% 29.70 in - WNW 20.7 mph 28.8 mph N/A   Clear
4:53 PM 84.9 °F - 48.0 °F 28% 29.70 in - WNW 19.6 mph 28.8 mph N/A   Clear
6:53 PM 81.0 °F - 51.1 °F 35% 29.71 in - NW 11.5 mph - N/A   Clear
7:53 PM 75.9 °F - 52.0 °F 43% 29.72 in - NW 9.2 mph - N/A   Clear
8:53 PM 73.9 °F - 54.0 °F 50% 29.74 in - WNW 9.2 mph - N/A   Clear
9:53 PM 73.0 °F - 53.1 °F 49% 29.76 in - NW 15.0 mph - N/A   Clear
10:53 PM 71.1 °F - 53.1 °F 53% 29.77 in - NW 13.8 mph - N/A   Clear
11:53 PM 72.0 °F - 50.0 °F 46% 29.77 in - WNW 19.6 mph - N/A   Clear